Flag for Germany Weather past 2 weeks in Nürtingen, Baden-Württemberg, Germany

Now
46 °F

Sprinkles. Broken clouds.


Feels Like: 39 °F
Forecast: 42 / 53 °F
Wind: 21 mph from West

Location: Stuttgart-Echterdingen

Current Time: Mar 30, 2015 at 5:01:52 PM

Latest Report: Mar 30, 2015 at 4:20 PM


Visibility: N/A

Pressure: 29.80 "Hg

Humidity: 66%

Dew point: 36 °F

Location of NürtingenLocation

Historic Weather in Nürtingen — Graph

°F

Nürtingen temperature yesterday

Maximum temperature yesterday: 54 °F (at 12:20 PM)
Minimum temperature yesterday: 48 °F (at 12:20 AM)
Average temperature yesterday: 51 °F

Past Weeks' High & Low Weather Summary

 TemperatureHumidityPressure
High66 °F (Mar 17, 2:50 PM)100% (Mar 19, 6:20 AM)30.36 "Hg (Mar 19, 6:20 AM)
Low30 °F (Mar 24, 4:50 AM)29% (Mar 16, 3:20 PM)29.56 "Hg (Mar 25, 1:50 PM)
Average46 °F69%30.00 "Hg
* Reported Mar 15 2:20 PM — Mar 30 3:50 PM, Nürtingen, Weather by CustomWeather, © 2015

Note: Actual official high and low records may vary slightly from our data, if they occured in-between our weather recording intervals... More about our weather records

Advertising

Nürtingen weather history for previous 24 hours

 ConditionsComfort  
Time TempWeatherWind HumidityBarometerVisibility
3:50 PM
Mon, Mar 30
48 °FSprinkles. Broken clouds.23 mph62%29.80 "HgN/A
3:20 PM48 °FBroken clouds.25 mph76%29.80 "HgN/A
2:50 PM45 °FBroken clouds.21 mph81%29.77 "HgN/A
2:20 PM43 °FRain showers. Broken clouds.31 mph81%29.77 "Hg2 mi
1:50 PM48 °FBroken clouds.28 mph71%29.71 "HgN/A
1:20 PM48 °FCool.16 mph76%29.71 "HgN/A
12:50 PM45 °FSprinkles. Broken clouds.23 mph81%29.71 "HgN/A
12:20 PM50 °FScattered showers. Partly sunny.23 mph71%29.68 "HgN/A
11:50 AM46 °FPartly sunny.26 mph76%29.68 "HgN/A
11:20 AM45 °FSprinkles. Broken clouds.30 mph81%29.68 "HgN/A
10:50 AM46 °FPartly sunny.10 mph82%29.65 "HgN/A
10:20 AM46 °FBroken clouds.22 mph76%29.65 "HgN/A
9:50 AM46 °FPartly sunny.22 mph76%29.62 "HgN/A
9:20 AM46 °FBroken clouds.22 mph76%29.62 "HgN/A
8:50 AM46 °FBroken clouds.21 mph82%29.62 "HgN/A
8:20 AM46 °FPartly sunny.16 mph82%29.59 "HgN/A
7:50 AM45 °FPartly cloudy.12 mph93%29.59 "HgN/A
7:20 AM45 °FLight rain. Overcast.12 mph87%29.56 "HgN/A
6:50 AM46 °FLight rain. Overcast.13 mph87%29.56 "HgN/A
6:20 AM45 °FLight rain. Overcast.12 mph93%29.56 "HgN/A
5:50 AM46 °FLight rain. Overcast.14 mph87%29.56 "HgN/A
5:20 AM46 °FLight rain. Overcast.15 mph87%29.56 "HgN/A
4:50 AM46 °FLight rain. Overcast.16 mph87%29.56 "HgN/A
4:20 AM46 °FLight rain. Overcast.14 mph93%29.56 "HgN/A
3:50 AM46 °FLight rain. Overcast.12 mph93%29.56 "HgN/A
3:20 AM46 °FLight rain. Overcast.15 mph87%29.59 "HgN/A
2:50 AM48 °FLight rain. Overcast.21 mph82%29.56 "HgN/A
2:20 AM48 °FLight rain. Partly cloudy.17 mph82%29.56 "HgN/A
1:50 AM50 °FLight rain. Partly cloudy.10 mph88%29.56 "HgN/A
1:20 AM48 °FSprinkles. Passing clouds.13 mph94%29.56 "HgN/A
12:50 AM48 °FSprinkles. Passing clouds.13 mph94%29.56 "HgN/A
12:20 AM50 °FRain showers. Passing clouds.12 mph88%29.56 "HgN/A
11:50 PM
Sun, Mar 29
50 °FSprinkles. Partly cloudy.14 mph88%29.56 "HgN/A
11:20 PM50 °FPassing clouds.14 mph88%29.56 "HgN/A
10:50 PM50 °FLight rain. Passing clouds.16 mph88%29.59 "HgN/A
10:20 PM50 °FLight rain. Passing clouds.15 mph88%29.59 "HgN/A
9:50 PM50 °FLight rain. Passing clouds.15 mph88%29.59 "HgN/A
9:20 PM50 °FLight rain. Passing clouds.16 mph88%29.62 "HgN/A
8:50 PM50 °FLight rain. Passing clouds.16 mph88%29.62 "HgN/A
8:20 PM50 °FLight rain. Partly sunny.18 mph88%29.62 "HgN/A
7:50 PM52 °FLight rain. Partly sunny.18 mph82%29.62 "HgN/A
7:20 PM52 °FLight rain. Partly sunny.17 mph77%29.62 "HgN/A
6:50 PM52 °FLight rain. Partly sunny.15 mph77%29.65 "HgN/A
6:20 PM52 °FLight rain. Broken clouds.17 mph77%29.65 "HgN/A
5:50 PM52 °FBroken clouds.20 mph72%29.65 "HgN/A
5:20 PM52 °FLight rain. Partly sunny.21 mph77%29.68 "HgN/A
Weather by CustomWeather, © 2015

See weather overviewHow to use our weather pages